[[{"header":{"parameterUnit":"m.s-1","parameterCategory":1,"la1":30.2991,"la2":30.254,"lo1":-89.0895,"lo2":-89.0444,"dy":0.0017,"dx":0.0017,"nx":28,"ny":28,"refTime":"2023-09-19T03:00:00:Z","depth":0,"parameterNumber":2,"parameterNumberName":"U-component_of_WINDS"},"data":[0,0,0,0,0,0,0,0,0,0,0,0,0,0,0,0,0,0,0,0,0,0,0,0,0,0,0,0,0,0,0,0,0,0,0,0,0,0,0,0,0,0,0,0,0,0,0,0,0,0,0,0,0,0,0,0,0,0,-4.6108,-4.6107,0,-4.5996,-4.5995,-4.5994,-4.5805,-4.5801,-4.5798,-4.5794,-4.5687,-4.5687,-4.5688,0,0,0,0,0,0,0,0,0,0,0,0,0,-4.6164,-4.6164,-4.6108,-4.6107,-4.6105,-4.5996,-4.5995,-4.5993,-4.5805,-4.5801,-4.5797,-4.5793,-4.5687,-4.5687,-4.5688,0,0,0,0,0,0,0,0,0,0,0,0,0,-4.6105,-4.6164,-4.6109,-4.5998,-4.5987,-4.5997,-4.5995,-4.5993,-4.5806,-4.5801,-4.5796,-4.5791,-4.5686,-4.5687,-4.5688,-4.5797,0,0,-4.569,-4.569,0,0,0,0,0,0,0,0,-4.6109,-4.6103,-4.6016,-4.6006,-4.5994,-4.5909,-4.5975,-4.5928,-4.5808,-4.5875,-4.5794,-4.5788,-4.5765,-4.5759,-4.575,-4.5792,-4.5788,-4.569,-4.569,-4.569,-4.569,0,0,0,0,0,0,0,-4.6113,-4.6107,-4.6064,-4.6015,-4.6001,-4.5956,-4.5942,-4.5965,-4.5852,-4.5869,-4.5855,-4.5844,-4.5758,-4.575,-4.5746,-4.5786,-4.569,-4.569,-4.569,-4.5691,-4.5911,-4.5916,0,0,0,0,0,0,-4.6133,-4.6112,-4.6068,-4.6061,-4.6039,-4.5959,-4.5943,-4.5942,-4.5851,-4.5832,-4.5849,-4.5836,-4.5751,-4.5746,-4.5742,-4.5862,-4.569,-4.5691,-4.5691,-4.5905,-4.5912,-4.5918,0,0,0,0,0,0,-4.6135,-4.6131,-4.6072,-4.6082,-4.6071,-4.5964,-4.5964,-4.5942,-4.5933,-4.5835,-4.5815,-4.5861,-4.5747,-4.5741,-4.5784,-4.5856,-4.5691,-4.5692,-4.5899,-4.5907,-4.5915,-4.6107,0,0,0,0,0,0,-4.6137,-4.6132,-4.6172,-4.6085,-4.6072,-4.6116,-4.5968,-4.5944,-4.5934,-4.5916,-4.5841,-4.5823,-4.5742,-4.5784,-4.5785,-4.5854,-4.5692,-4.5892,-4.5903,-4.5912,-4.6094,-4.6121,-4.6144,0,0,0,0,0,-4.614,-4.6233,-4.6175,-4.6171,-4.6119,-4.612,-4.6113,-4.6015,-4.5941,-4.598,-4.5917,-4.5826,-4.5848,-4.579,-4.5789,-4.586,-4.5887,-4.59,-4.5911,-4.6082,-4.6115,-4.6143,0,0,0,0,0,0,-4.6334,-4.6219,-4.6154,-4.6221,-4.6181,-4.6088,-4.6135,-4.6054,-4.6036,-4.6021,-4.5903,-4.5887,-4.5946,-4.5907,-4.5844,-4.596,-4.5853,-4.5866,-4.5984,-4.6014,-4.6039,-4.6047,-4.5693,0,0,0,0,0,-4.6385,-4.6394,-4.6293,-4.6362,-4.6345,-4.6244,-4.6241,-4.6169,-4.6124,-4.6107,-4.6047,-4.6009,-4.6006,-4.6008,-4.6001,-4.6087,-4.6067,-4.6135,-4.616,-4.6181,-4.6194,-4.6235,-4.6263,-4.5958,-4.5958,-4.5958,0,0,-4.649,-4.6428,-4.6441,-4.6399,-4.636,-4.6373,-4.6231,-4.6252,-4.6261,-4.6111,-4.6147,-4.6102,-4.6051,-4.6116,-4.6141,-4.6085,-4.6273,-4.6197,-4.6214,-4.6215,-4.6251,-4.628,-4.6305,-4.5967,-4.5965,-4.5964,0,0,-4.6687,-4.6641,-4.6692,-4.6655,-4.6596,-4.6528,-4.6541,-4.6459,-4.6422,-4.6456,-4.6343,-4.6353,-4.6353,-4.632,-4.6304,-4.6487,-4.6403,-4.6489,-4.662,-4.6661,-4.6686,-4.6706,-4.6771,-4.6796,-4.6501,-4.6502,-4.6502,0,-4.6825,-4.6839,-4.673,-4.6756,-4.6741,-4.6603,-4.6655,-4.6625,-4.6568,-4.6562,-4.6499,-4.6493,-4.645,-4.6504,-4.6549,-4.654,-4.6551,-4.6497,-4.669,-4.671,-4.6728,-4.6788,-4.6813,-4.6513,-4.6511,-4.651,-4.6509,0,-4.7011,-4.7022,-4.7071,-4.7016,-4.7007,-4.7047,-4.6944,-4.6948,-4.6877,-4.6816,-4.6852,-4.6794,-4.6772,-4.6779,-4.6711,-4.6824,-4.6791,-4.6712,-4.6601,-4.677,-4.6824,-4.6847,-4.6528,-4.6524,-4.6521,-4.6518,0,0,-4.733,-4.7212,-4.7232,-4.7205,-4.7129,-4.7136,-4.7169,-4.7144,-4.715,-4.7115,-4.714,-4.7142,-4.7066,-4.7048,-4.6975,-4.7012,-4.7159,-4.6927,-4.6924,-4.6972,-4.7279,-4.734,-4.7368,-4.7102,-4.7106,-4.711,-4.7283,0,-4.7511,-4.7559,-4.7461,-4.7533,-4.7541,-4.7409,-4.7438,-4.7395,-4.7339,-4.7339,-4.7277,-4.7279,-4.718,-4.7168,-4.7198,-4.7135,-4.722,-4.7121,-4.7126,-4.7127,-4.7142,-4.7397,-4.7461,-4.7627,-4.7304,-4.7308,-4.731,0,-4.773,-4.7703,-4.7775,-4.7692,-4.7692,-4.772,-4.7688,-4.769,-4.7639,-4.7595,-4.7574,-4.7486,-4.7514,-4.7408,-4.7444,-4.7379,-4.7375,-4.7345,-4.7349,-4.7345,-4.7229,-4.74,-4.7678,-4.7704,-4.7343,-4.734,-4.7338,0,-4.7954,-4.7936,-4.7976,-4.7957,-4.7862,-4.7884,-4.7846,-4.7789,-4.778,-4.7754,-4.7747,-4.7725,-4.7714,-4.77,-4.7609,-4.754,-4.7657,-4.7543,-4.7622,-4.7624,-4.7653,-4.7652,-4.7934,-4.7651,-4.7651,-4.765,-4.765,0,-4.8167,-4.8217,-4.8075,-4.81,-4.8151,-4.8038,-4.8092,-4.8041,-4.7992,-4.8005,-4.7891,-4.7906,-4.7785,-4.7788,-4.7718,-4.7758,-4.7755,-4.772,-4.7701,-4.773,-4.7735,-4.7726,-4.7713,-4.7657,-4.7655,-4.7654,-4.7653,0,-4.8427,-4.8334,-4.8369,-4.8275,-4.8253,-4.8295,-4.8215,-4.8234,-4.8169,-4.8188,-4.8186,-4.8085,-4.8081,-4.7989,-4.7968,-4.7921,-4.799,-4.795,-4.8007,-4.7994,-4.8077,-4.8071,-4.8363,-4.8396,-4.8094,-4.8097,-4.8099,0,-4.8569,-4.8603,-4.8512,-4.8511,-4.8478,-4.8479,-4.8468,-4.8358,-4.8352,-4.8295,-4.8322,-4.8308,-4.8292,-4.8293,-4.8219,-4.8202,-4.816,-4.8264,-4.8157,-4.8185,-4.8161,-4.816,-4.8162,-4.8287,-4.8291,-4.8294,-4.8296,0,-4.8831,-4.8782,-4.877,-4.8741,-4.8731,-4.8704,-4.867,-4.8676,-4.8556,-4.8555,-4.8548,-4.8536,-4.8511,-4.85,-4.8469,-4.8431,-4.8345,-4.833,-4.8347,-4.8378,-4.8409,-4.8392,-4.8068,-4.8324,-4.8322,-4.8319,-4.8318,-4.8317,-4.9035,-4.9059,-4.8997,-4.8987,-4.8949,-4.8919,-4.8932,-4.8867,-4.8859,-4.8829,-4.8765,-4.8769,-4.8716,-4.8664,-4.8634,-4.8636,-4.8583,-4.8609,-4.8615,-4.8623,-4.8639,-4.8409,-4.863,-4.8629,-4.8628,-4.8627,-4.8627,0,-4.929,-4.9243,-4.9235,-4.9189,-4.9181,-4.9097,-4.9054,-4.9054,-4.9057,-4.9014,-4.8999,-4.8991,-4.8979,-4.8903,-4.8882,-4.8899,-4.8858,-4.8897,-4.8895,-4.8887,-4.8687,-4.8674,-4.893,-4.893,-4.893,-4.893,-4.893,-4.8929,-4.9422,-4.9456,-4.9401,-4.9415,-4.9368,-4.9369,-4.9351,-4.9323,-4.9287,-4.9283,-4.9271,-4.9221,-4.9164,-4.9138,-4.9123,-4.9101,-4.9099,-4.9151,-4.9116,-4.8931,-4.8902,-4.8874,-4.8861,-4.9152,-4.9152,-4.9315,-4.9317,-4.9318]},{"header":{"parameterUnit":"m.s-1","parameterCategory":1,"la1":30.2991,"la2":30.254,"lo1":-89.0895,"lo2":-89.0444,"dy":0.0017,"dx":0.0017,"nx":28,"ny":28,"refTime":"2023-09-19T03:00:00:Z","depth":0,"parameterNumber":3,"parameterNumberName":"V-component_of_WINDS"},"data":[0,0,0,0,0,0,0,0,0,0,0,0,0,0,0,0,0,0,0,0,0,0,0,0,0,0,0,0,0,0,0,0,0,0,0,0,0,0,0,0,0,0,0,0,0,0,0,0,0,0,0,0,0,0,0,0,0,0,-1.8782,-1.8782,0,-1.8836,-1.8836,-1.8837,-1.8806,-1.8804,-1.8802,-1.8801,-1.8865,-1.8868,-1.8871,0,0,0,0,0,0,0,0,0,0,0,0,0,-1.8659,-1.8661,-1.8782,-1.8782,-1.8783,-1.8836,-1.8836,-1.8837,-1.8806,-1.8804,-1.8802,-1.88,-1.8864,-1.8868,-1.8872,0,0,0,0,0,0,0,0,0,0,0,0,0,-1.8713,-1.8662,-1.8782,-1.8774,-1.8773,-1.8836,-1.8836,-1.8837,-1.8806,-1.8804,-1.8802,-1.8799,-1.8863,-1.8868,-1.8872,-1.8948,0,0,-1.8887,-1.8889,0,0,0,0,0,0,0,0,-1.871,-1.8717,-1.8774,-1.8774,-1.8774,-1.8811,-1.8817,-1.8875,-1.8807,-1.8794,-1.8801,-1.8798,-1.885,-1.8855,-1.8871,-1.8951,-1.8954,-1.8887,-1.889,-1.8892,-1.8893,0,0,0,0,0,0,0,-1.8706,-1.8715,-1.8803,-1.8775,-1.8775,-1.877,-1.8775,-1.8827,-1.8835,-1.8795,-1.8793,-1.8799,-1.8849,-1.8867,-1.8872,-1.8955,-1.8887,-1.8891,-1.8894,-1.8896,-1.9101,-1.9103,0,0,0,0,0,0,-1.8702,-1.8712,-1.8802,-1.8805,-1.8735,-1.8774,-1.8779,-1.8802,-1.8834,-1.8836,-1.8801,-1.8797,-1.886,-1.8867,-1.8874,-1.8966,-1.8892,-1.8896,-1.8899,-1.9098,-1.9101,-1.9104,0,0,0,0,0,0,-1.8699,-1.871,-1.88,-1.8758,-1.8769,-1.8778,-1.8804,-1.8804,-1.8821,-1.8838,-1.884,-1.8817,-1.8858,-1.8868,-1.893,-1.8968,-1.8899,-1.8903,-1.9095,-1.9099,-1.9103,-1.915,0,0,0,0,0,0,-1.8696,-1.8709,-1.8737,-1.8758,-1.8771,-1.8852,-1.8806,-1.8807,-1.8828,-1.8824,-1.8854,-1.8856,-1.8857,-1.8923,-1.8934,-1.8973,-1.8907,-1.9092,-1.9097,-1.9102,-1.9145,-1.9155,-1.9164,0,0,0,0,0,-1.8691,-1.875,-1.8738,-1.8749,-1.8805,-1.8854,-1.8861,-1.8858,-1.8832,-1.886,-1.8871,-1.8855,-1.8961,-1.8929,-1.8942,-1.8983,-1.9089,-1.9096,-1.9101,-1.9141,-1.9153,-1.9164,0,0,0,0,0,0,-1.8735,-1.8752,-1.874,-1.8806,-1.8828,-1.8848,-1.8885,-1.8871,-1.8904,-1.8899,-1.8896,-1.8903,-1.8968,-1.8981,-1.8945,-1.9059,-1.9022,-1.903,-1.9048,-1.9059,-1.9068,-1.9065,-1.891,0,0,0,0,0,-1.8752,-1.8788,-1.8802,-1.8859,-1.8871,-1.8876,-1.8897,-1.8892,-1.8916,-1.8927,-1.8942,-1.8968,-1.9008,-1.9034,-1.9071,-1.9146,-1.9153,-1.9181,-1.919,-1.9197,-1.9206,-1.9248,-1.9261,-1.9123,-1.9123,-1.9123,0,0,-1.8789,-1.8802,-1.8826,-1.8868,-1.8885,-1.8925,-1.8884,-1.8928,-1.8958,-1.8934,-1.8993,-1.9005,-1.9034,-1.9103,-1.9135,-1.9117,-1.9245,-1.9205,-1.9211,-1.9215,-1.9256,-1.9269,-1.928,-1.9127,-1.9127,-1.9126,0,0,-1.8876,-1.8888,-1.8938,-1.8954,-1.8979,-1.8981,-1.8993,-1.9015,-1.9021,-1.9079,-1.9062,-1.9099,-1.9166,-1.9188,-1.9208,-1.9301,-1.9289,-1.9313,-1.9363,-1.9404,-1.9415,-1.9424,-1.946,-1.9472,-1.9321,-1.9321,-1.9321,0,-1.8919,-1.8975,-1.8966,-1.901,-1.903,-1.9007,-1.9058,-1.9076,-1.9112,-1.9128,-1.9106,-1.919,-1.9208,-1.9282,-1.9304,-1.9321,-1.9336,-1.9311,-1.9413,-1.9423,-1.9432,-1.9466,-1.9479,-1.9324,-1.9324,-1.9323,-1.9323,0,-1.9028,-1.9067,-1.9105,-1.9137,-1.9161,-1.9209,-1.9209,-1.9235,-1.9228,-1.9233,-1.9294,-1.9314,-1.9355,-1.9371,-1.9366,-1.9445,-1.9434,-1.9413,-1.9376,-1.9448,-1.948,-1.9493,-1.9328,-1.9327,-1.9326,-1.9326,0,0,-1.9147,-1.9171,-1.9186,-1.92,-1.9225,-1.9256,-1.9303,-1.934,-1.9363,-1.9389,-1.943,-1.9486,-1.9467,-1.9489,-1.9486,-1.9522,-1.9596,-1.9496,-1.9497,-1.9516,-1.9688,-1.9705,-1.972,-1.9586,-1.9589,-1.9591,-1.9686,0,-1.9237,-1.9317,-1.9309,-1.9386,-1.9423,-1.94,-1.9442,-1.9463,-1.9469,-1.9503,-1.9511,-1.9551,-1.9521,-1.9535,-1.9568,-1.958,-1.9631,-1.9572,-1.9629,-1.9631,-1.9625,-1.9736,-1.9755,-1.9844,-1.9698,-1.97,-1.9701,0,-1.9354,-1.938,-1.946,-1.9478,-1.9493,-1.953,-1.9563,-1.9595,-1.9619,-1.9621,-1.9645,-1.9635,-1.9685,-1.9644,-1.9715,-1.9675,-1.9697,-1.9706,-1.971,-1.9718,-1.9673,-1.975,-1.9872,-1.9887,-1.9721,-1.9719,-1.9718,0,-1.9435,-1.9491,-1.9546,-1.9558,-1.958,-1.9607,-1.9618,-1.9639,-1.9661,-1.9691,-1.9706,-1.9742,-1.9763,-1.9792,-1.9793,-1.9763,-1.9865,-1.9824,-1.9871,-1.9871,-1.9897,-1.9896,-2.0027,-1.9906,-1.9906,-1.9905,-1.9905,0,-1.9538,-1.9589,-1.9582,-1.9617,-1.9673,-1.9664,-1.9721,-1.9729,-1.9747,-1.9785,-1.9767,-1.9803,-1.98,-1.9838,-1.9839,-1.9898,-1.9907,-1.9913,-1.9913,-1.9916,-1.9916,-1.9933,-1.9928,-1.9909,-1.9908,-1.9908,-1.9907,0,-1.9641,-1.9638,-1.9697,-1.9711,-1.9716,-1.9757,-1.9771,-1.9805,-1.9808,-1.9855,-1.9866,-1.9873,-1.9915,-1.9918,-1.9968,-1.9969,-2.0042,-2.0034,-2.0033,-2.0033,-2.0081,-2.0077,-2.0231,-2.0251,-2.0114,-2.0115,-2.0116,0,-1.9708,-1.9746,-1.9763,-1.9785,-1.9797,-1.9833,-1.9855,-1.9848,-1.9872,-1.99,-1.9931,-1.9971,-2.0003,-2.0073,-2.0085,-2.0123,-2.0118,-2.0169,-2.0124,-2.0126,-2.0122,-2.0121,-2.0126,-2.0179,-2.018,-2.0182,-2.0183,0,-1.9829,-1.9825,-1.9856,-1.9886,-1.9912,-1.9936,-1.9959,-1.9979,-1.9974,-2.0003,-2.0044,-2.0068,-2.0118,-2.0159,-2.0196,-2.0211,-2.0198,-2.0196,-2.0209,-2.0214,-2.0214,-2.0217,-2.006,-2.0193,-2.0192,-2.0191,-2.0191,-2.019,-1.9918,-1.995,-1.9967,-2.0003,-2.0018,-2.0039,-2.0071,-2.0077,-2.011,-2.0148,-2.0142,-2.0189,-2.0212,-2.026,-2.0277,-2.0315,-2.0298,-2.0317,-2.0323,-2.0328,-2.0335,-2.0204,-2.0322,-2.0321,-2.0321,-2.0321,-2.0321,0,-2.004,-2.0049,-2.0081,-2.0111,-2.0139,-2.0119,-2.0143,-2.0169,-2.0209,-2.023,-2.0261,-2.0309,-2.0349,-2.0361,-2.04,-2.0429,-2.0424,-2.044,-2.044,-2.0444,-2.0346,-2.0332,-2.0443,-2.0443,-2.0443,-2.0443,-2.0443,-2.0443,-2.0107,-2.0161,-2.0159,-2.0222,-2.0231,-2.0275,-2.029,-2.0311,-2.0327,-2.0381,-2.0412,-2.0419,-2.0437,-2.0477,-2.0513,-2.0516,-2.0533,-2.0552,-2.0553,-2.0463,-2.045,-2.0439,-2.0425,-2.0555,-2.0555,-2.0648,-2.0649,-2.0649]}]]